Weather History for KCID - February, 2014

Change the Weather History Date:

Tuesday, February 18, 2014

  Actual Average Record
Temperature  
Mean Temperature 30 °F 25 °F  
Max Temperature 45 °F 34 °F 65 °F (1981)
Min Temperature 15 °F 17 °F -18 °F (1936)
Degree Days  
Heating Degree Days 35 40  
Month to date heating degree days 1009 761  
Since 1 July heating degree days 5554 4909  
Cooling Degree Days 0 0  
Month to date cooling degree days 0 0  
Year to date cooling degree days 0 0  
Moisture  
Dew Point 24 °F    
Average Humidity 69    
Maximum Humidity 88    
Minimum Humidity 49    
Precipitation  
Precipitation 0.00 in 0.05 in 0.89 in (1962)
Month to date precipitation 0.65 0.72  
Year to date precipitation 1.09 1.64  
Sea Level Pressure  
Sea Level Pressure 29.73 in    
Wind  
Wind Speed 11 mph (SW)    
Max Wind Speed 28 mph    
Max Gust Speed 32 mph    
Visibility 10 miles    
Events      
T = Trace of Precipitation, MM = Missing Value Source: NWS Daily Summary

Daily Weather History Graph

Daily Weather History Graph

Search for Another Location

Airport or City:

Trip Planner

Search our weather history database for the weather conditions in past years. The results will help you decide how hot, cold, wet, or windy it might be!

Date:

Astronomy

Feb. 18, 2014 Rise Set
Actual Time 6:58 AM CST 5:43 PM CST
Civil Twilight 6:29 AM CST 6:12 PM CST
Nautical Twilight 5:57 AM CST 6:44 PM CST
Astronomical Twilight 5:25 AM CST 7:17 PM CST
Moon 9:41 PM CST (2/18) 8:26 AM CST (2/18)
Length of Visible Light 11h 42m
Length of Day
10h 45m
Waning Gibbous, 87% of the Moon is Illuminated
Feb 18
Waning Gibbous
Feb 22
Last Quarter
Mar 1
New
Mar 8
First Quarter
Mar 16
Full

Hourly Weather History & Observations

Time (CST) Temp. Windchill Dew Point Humidity Pressure Visibility Wind Dir Wind Speed Gust Speed Precip Events Conditions
12:52 AM 24.1 °F 17.0 °F 19.0 °F 81% 29.91 in 10.0 mi West 5.8 mph - N/A   Clear
1:52 AM 21.0 °F 14.6 °F 18.0 °F 88% 29.91 in 10.0 mi South 4.6 mph - N/A   Clear
2:52 AM 17.1 °F 10.0 °F 14.0 °F 88% 29.88 in 10.0 mi South 4.6 mph - N/A   Clear
3:52 AM 17.1 °F 10.0 °F 14.0 °F 88% 29.86 in 10.0 mi SSE 4.6 mph - N/A   Clear
4:52 AM 23.0 °F 13.1 °F 19.0 °F 85% 29.83 in 10.0 mi SSE 9.2 mph - N/A   Clear
5:52 AM 26.1 °F 16.8 °F 19.9 °F 78% 29.80 in 10.0 mi SSE 9.2 mph - N/A   Clear
6:52 AM 28.0 °F 18.1 °F 19.9 °F 72% 29.76 in 10.0 mi SSE 11.5 mph - N/A   Clear
7:52 AM 30.0 °F 21.1 °F 21.0 °F 69% 29.74 in 10.0 mi South 10.4 mph - N/A   Clear
8:52 AM 33.1 °F 24.9 °F 21.9 °F 64% 29.73 in 10.0 mi South 10.4 mph - N/A   Clear
9:52 AM 39.0 °F 30.3 °F 25.0 °F 57% 29.68 in 10.0 mi South 16.1 mph - N/A   Clear
10:52 AM 41.0 °F 33.1 °F 26.1 °F 55% 29.65 in 10.0 mi South 15.0 mph - N/A   Clear
11:52 AM 42.1 °F 35.2 °F 27.0 °F 55% 29.65 in 10.0 mi SSW 12.7 mph - N/A   Clear
12:52 PM 44.1 °F 36.5 °F 27.0 °F 51% 29.62 in 10.0 mi SSW 17.3 mph - N/A   Clear
1:52 PM 44.1 °F 36.2 °F 27.0 °F 51% 29.61 in 10.0 mi SW 18.4 mph - 0.00 in   Clear
2:52 PM 43.0 °F 38.2 °F 28.0 °F 56% 29.62 in 10.0 mi WSW 8.1 mph - 0.00 in   Clear
3:52 PM 39.9 °F 35.8 °F 28.9 °F 65% 29.64 in 10.0 mi WSW 5.8 mph - N/A   Clear
4:52 PM 42.1 °F 37.7 °F 28.9 °F 60% 29.63 in 10.0 mi West 6.9 mph - N/A   Clear
5:52 PM 37.9 °F 32.1 °F 28.9 °F 70% 29.66 in 10.0 mi WSW 8.1 mph - N/A   Clear
6:52 PM 36.0 °F 28.5 °F 28.0 °F 73% 29.68 in 10.0 mi West 10.4 mph - N/A   Clear
7:52 PM 36.0 °F 27.5 °F 28.0 °F 73% 29.71 in 10.0 mi WNW 12.7 mph - N/A   Clear
8:52 PM 37.0 °F 26.4 °F 28.9 °F 73% 29.74 in 10.0 mi NW 20.7 mph - N/A   Clear
9:52 PM 36.0 °F 25.6 °F 28.9 °F 76% 29.75 in 10.0 mi NW 18.4 mph - N/A   Partly Cloudy
10:52 PM 35.1 °F 25.5 °F 28.0 °F 76% 29.75 in 10.0 mi NW 15.0 mph - N/A   Partly Cloudy
11:52 PM 34.0 °F 23.8 °F 28.9 °F 82% 29.78 in 10.0 mi NW 16.1 mph - N/A   Clear